SCOUT A DEB, 2889

Orbit data source: Space-Track

SCOUT A DEB, 2889 is space debris in LEO originally from a launch on Fri, 28 Jan 1966 UTC launched from the Air Force Western Test Range (AFWTR). Debris objects in space refer to the collection of defunct objects orbiting the Earth. Examples of debris include non-operational satellites, rocket bodies, and fragments generated from explosions, collisions, or faulty payload assembly.

Loading next visibility...
Identifier
2889, 1966-005E
Orbit
LEO
Last TLE update
17 hours ago
Origin
Manufacturer
Unknown
Mission
Spacecraft
Bus & Motor
Unknown
Mass
Unknown
Launch date (UTC)
1966-01-28 (59 years ago)
Launch vehicle
Unknown
Launch site
Air Force Western Test Range (AFWTR)
Object type
Payload
Rocket body
Debris
Shape & HBR
Unknown
Radar Cross Section
Small (<0.1 m²)

Expand to show TLE details & history

TLE from 17 hours ago
0 SCOUT A DEB
1 02889U 66005E   25182.45500802  .00000079  00000-0  16283-3 0  9995
2 02889  89.5454 173.1589 0168153  37.1040  85.2603 13.17955110790190
Epoch: 2025-07-01T10:55Z
TLE epoch observation values (Epoch: 2025-07-01T10:55:12.692Z)
Latitude
55.80187°
Longitude
-91.05981°
Altitude
1,193.496 km
Speed
7.266 km/s
True Right ascension
23h 29m 58s
True Declination
55° 39' 04"
Sunlit
Object was in daylight at epoch
Visualization orbit readout
Latitude
-33.72359°
Longitude
89.27238°
Altitude
1,156.938 km
Speed
7.297 km/s
Apparent Right ascension
08h 28m 33s
Apparent Declination
-52° 22' 59"
Sunlit
Object is in daylight
Visualization observer readout
Local Sidereal Time
16:03:03
Azimuth
231.141° WSW
Elevation
-44.097°
Doppler factor
1
Orbital elements
Apogee altitude
1,316.891 km
Perigee altitude
1,062.383 km
Semi-major axis
7,567.774 km
Eccentricity
0.01682
Inclination
89.5454°
RAAN
173.1589°
Arg. of periapsis
37.104°
True anomaly
Unknown
Mean anomaly
85.2603°
Eccentric anomaly
Unknown
Mean motion
3.29679 °/min
Orbital period
109.2 mins
BSTAR
0.00016283
Loading maneuver chart data...
Loading SW <> Apogee altitude chart data...
Loading historical data...
Loading historical data...
Loading historical data...
Loading historical data...
Loading historical data...
Loading historical data...
Loading historical data...

SCOUT A DEB Visibility forecast

Observer location: undefined°, undefined°

Span
Click to sort rows by Start time (UTC) header in descending order
Start Az.
Max El. time (UTC)
Max El. Az.
Max El.
End time (UTC)
End Az.
11 mins2025-07-02 10:35:39.651Z26.124° NE2025-07-02 10:40:39.651Z76.282° E27.376°2025-07-02 10:46:39.651Z138.401° SSE
12 mins2025-07-02 12:24:39.651Z345.892° N2025-07-02 12:30:39.651Z270.886° WNW36.089°2025-07-02 12:36:39.651Z210.693° SW
10 mins2025-07-02 22:52:39.651Z134.474° SE2025-07-02 22:56:39.651Z83.96° E30.501°2025-07-02 23:02:39.651Z15.928° NNE
10 mins2025-07-03 00:41:39.651Z221.657° SW2025-07-03 00:45:39.651Z270.454° WNW28.856°2025-07-03 00:51:39.651Z339.01° N
|